This is the latest recevied weather packets stored in our database for station/object HK6RM-17. If no packets are shown the sender has not sent any weather packets the latest 10 day(s).
| Time | Temp. | Humidity | Pressure | Rain* | Wind** | Luminosity | Snow |
|---|---|---|---|---|---|---|---|
| 1777992966 | 18.33° C | 79% | 1016 hPa | 0 mm | - | - | - |
| 1777992365 | 18.89° C | 78% | 1016 hPa | 0 mm | - | - | - |
| 1777991763 | 18.33° C | 76% | 1016 hPa | 0 mm | - | - | - |
| 1777991160 | 18.33° C | 75% | 1016 hPa | 0 mm | - | - | - |
| 1777990559 | 18.89° C | 73% | 1016 hPa | 0 mm | - | - | - |
| 1777989957 | 18.89° C | 72% | 1016 hPa | 0 mm | - | - | - |
| 1777989357 | 19.44° C | 69% | 1016 hPa | 0 mm | - | - | - |
| 1777988756 | 19.44° C | 70% | 1016 hPa | 0 mm | - | - | - |
| 1777988154 | 19.44° C | 74% | 1016 hPa | 0 mm | - | - | - |
| 1777987552 | 15.56° C | 94% | 1016 hPa | 0 mm | - | - | - |
| 1777986952 | 15° C | 93% | 1016 hPa | 0 mm | - | - | - |
| 1777986350 | 15° C | 94% | 1016 hPa | 0 mm | - | - | - |
| 1777985749 | 15.56° C | 94% | 1016 hPa | 0 mm | - | - | - |
| 1777985143 | 16.11° C | 94% | 1016 hPa | 0 mm | - | - | - |
| 1777984543 | 13.33° C | 98% | 1016 hPa | 0 mm | - | - | - |
| 1777983942 | 13.89° C | 98% | 1016 hPa | 0 mm | - | - | - |
| 1777983342 | 13.89° C | 98% | 1016 hPa | 0 mm | - | - | - |
| 1777982740 | 13.33° C | 99% | 1016 hPa | 0 mm | - | - | - |
| 1777982140 | 13.89° C | 99% | 1016 hPa | 0 mm | - | - | - |
| 1777981539 | 14.44° C | 99% | 1017 hPa | 0 mm | - | - | - |
| 1777980938 | 11.11° C | 84% | 1017 hPa | 0 mm | - | - | - |
| 1777980338 | 11.11° C | 84% | 1017 hPa | 0 mm | - | - | - |
| 1777979737 | 11.11° C | 85% | 1017 hPa | 0 mm | - | - | - |
| 1777979137 | 11.11° C | 84% | 1017 hPa | 0 mm | - | - | - |
| 1777978534 | 11.11° C | 84% | 1017 hPa | 0 mm | - | - | - |
* Rain latest hour (hover to see other rain measurements)
** Current wind speed in m/s (hover to see current wind gust speed)